QPF
0.13 0.04 0.00 0.00 0.00 0.00 0.00 0.00 0.00 0.00 0.00 0.00 0.00 0.00 0.00 0.00 0.00 0.00 0.00 0.00 0.00 0.00
0.14 0.16 0.06 0.01 0.01 0.01 0.01 0.00 0.00 0.00 0.00 0.00 0.00 0.00 0.00 0.00 0.00 0.00 0.00 0.00 0.00 0.00
0.13 0.19 0.18 0.10 0.02 0.00 0.01 0.01 0.01 0.00 0.00 0.00 0.00 0.00 0.00 0.00 0.00 0.00 0.00 0.00 0.00 0.00
0.12 0.16 0.24 0.23 0.15 0.02 0.01 0.01 0.03 0.01 0.00 0.00 0.00 0.00 0.00 0.00 0.00 0.00 0.00 0.00 0.00 0.00
0.24 0.18 0.24 0.22 0.25 0.08 0.02 0.02 0.03 0.02 0.01 0.00 0.00 0.00 0.00 0.00 0.00 0.00 0.00 0.00 0.00 0.00
0.25 0.36 0.29 0.31 0.21 0.19 0.09 0.05 0.01 0.01 0.00 0.00 0.00 0.00 0.00 0.00 0.00 0.00 0.00 0.00 0.00 0.01
0.27 0.33 0.44 0.38 0.33 0.29 0.24 0.16 0.09 0.03 0.01 0.00 0.00 0.00 0.00 0.00 0.00 0.00 0.01 0.01 0.01 0.01
0.22 0.25 0.31 0.37 0.36 0.33 0.28 0.26 0.23 0.19 0.12 0.06 0.02 0.00 0.00 0.00 0.01 0.02 0.03 0.04 0.03 0.03
0.16 0.18 0.19 0.22 0.26 0.26 0.23 0.19 0.17 0.15 0.13 0.11 0.07 0.05 0.04 0.04 0.02 0.02 0.03 0.03 0.04 0.04
0.11 0.13 0.14 0.14 0.14 0.15 0.14 0.12 0.11 0.08 0.06 0.04 0.03 0.04 0.06 0.07 0.04 0.02 0.02 0.02 0.01 0.01
0.08 0.09 0.09 0.10 0.10 0.11 0.10 0.09 0.07 0.06 0.03 0.01 0.02 0.03 0.04 0.06 0.04 0.04 0.04 0.02 0.02 0.01
0.06 0.06 0.06 0.07 0.08 0.09 0.09 0.08 0.07 0.07 0.05 0.05 0.05 0.04 0.03 0.04 0.05 0.07 0.06 0.04 0.02 0.01
0.04 0.05 0.05 0.06 0.06 0.07 0.07 0.08 0.09 0.08 0.08 0.08 0.07 0.06 0.03 0.04 0.05 0.05 0.04 0.02 0.01 0.00
0.02 0.03 0.04 0.04 0.05 0.06 0.06 0.07 0.06 0.06 0.06 0.06 0.08 0.10 0.06 0.04 0.03 0.03 0.02 0.02 0.01 0.00
MSLP
1006.56 1006.31 1006.47 1007.28 1008.33 1009.22 1010.00 1010.96 1011.61 1012.29 1012.93 1013.43 1014.14 1014.99 1015.84 1016.79 1017.76 1018.57 1019.12 1019.68 1019.92 1020.41
1007.74 1007.52 1007.44 1007.28 1008.20 1008.96 1009.82 1010.79 1011.78 1012.59 1013.32 1013.78 1014.34 1015.14 1015.91 1016.66 1017.51 1018.32 1019.05 1019.82 1020.42 1020.83
1009.07 1008.63 1008.43 1008.10 1007.98 1009.02 1009.86 1010.99 1011.85 1012.74 1013.51 1014.26 1014.86 1015.03 1016.30 1016.89 1017.47 1018.44 1019.55 1020.23 1020.70 1021.39
1010.37 1009.79 1009.50 1009.72 1009.53 1008.73 1009.64 1010.80 1011.83 1012.69 1013.50 1014.33 1014.91 1015.40 1016.38 1017.26 1017.80 1018.74 1019.60 1020.29 1020.89 1021.61
1012.03 1011.17 1010.81 1010.97 1010.99 1010.57 1010.09 1010.66 1011.96 1012.92 1013.58 1014.47 1015.20 1015.95 1016.55 1017.30 1018.38 1019.01 1019.95 1020.64 1021.30 1021.97
1013.60 1013.00 1012.52 1011.94 1011.80 1011.48 1011.61 1011.49 1012.16 1012.75 1013.96 1014.50 1015.51 1016.12 1016.76 1017.63 1018.61 1019.28 1019.93 1020.89 1021.75 1022.28
1015.24 1013.84 1013.12 1013.02 1012.91 1012.55 1012.52 1012.62 1012.91 1013.57 1014.45 1015.05 1015.90 1016.47 1017.28 1018.24 1018.79 1019.79 1020.54 1021.35 1022.12 1022.83
1016.29 1015.61 1014.93 1014.25 1013.90 1012.92 1013.78 1013.72 1014.19 1014.28 1015.62 1015.83 1016.47 1017.28 1017.96 1018.68 1019.39 1020.14 1021.15 1021.88 1022.65 1023.21
1019.01 1017.00 1017.33 1015.35 1014.53 1014.39 1015.12 1015.33 1014.85 1015.22 1016.30 1016.53 1017.21 1017.77 1018.45 1019.19 1019.88 1020.57 1021.64 1022.41 1022.98 1023.61
1020.16 1018.93 1017.54 1017.32 1016.16 1015.81 1016.61 1016.16 1016.04 1016.52 1016.86 1017.54 1017.71 1018.20 1018.78 1019.59 1020.38 1021.21 1021.91 1022.62 1023.21 1023.88
1021.56 1020.48 1019.27 1018.63 1017.77 1017.78 1017.69 1016.87 1016.98 1017.37 1017.90 1018.24 1018.12 1018.60 1019.28 1020.04 1020.83 1021.66 1022.43 1023.05 1023.56 1023.88
1023.11 1022.02 1021.39 1020.49 1019.67 1019.17 1018.21 1018.12 1018.26 1018.19 1018.51 1018.76 1018.80 1019.35 1019.89 1020.55 1021.22 1022.00 1022.79 1023.40 1023.91 1024.16
1024.56 1023.43 1022.74 1021.97 1021.01 1020.38 1019.77 1019.53 1019.30 1019.74 1019.86 1019.62 1019.80 1019.96 1020.61 1021.22 1021.78 1022.39 1023.00 1023.57 1023.91 1024.03
1025.77 1024.66 1024.05 1023.42 1022.39 1021.77 1021.43 1020.85 1020.70 1020.75 1020.68 1020.57 1020.51 1020.76 1021.08 1021.58 1022.12 1022.62 1023.25 1023.69 1024.08 1024.42
Thickness
5544 5553 5560 5559 5554 5552 5552 5551 5552 5552 5553 5555 5553 5551 5547 5544 5540 5537 5535 5534 5536 5534
5519 5529 5538 5547 5544 5541 5540 5539 5537 5537 5537 5538 5540 5539 5538 5536 5533 5531 5529 5525 5524 5523
5493 5506 5516 5526 5534 5531 5528 5524 5522 5521 5523 5523 5524 5528 5524 5524 5525 5522 5516 5513 5513 5510
5466 5480 5492 5496 5509 5520 5517 5513 5509 5509 5510 5510 5511 5514 5511 5510 5511 5508 5504 5503 5502 5499
5440 5455 5466 5474 5482 5491 5501 5503 5496 5496 5497 5496 5497 5496 5497 5496 5493 5493 5490 5489 5487 5486
5413 5426 5439 5453 5464 5469 5473 5483 5483 5485 5482 5483 5482 5482 5483 5480 5478 5478 5477 5474 5472 5472
5386 5406 5420 5431 5440 5448 5452 5458 5462 5462 5461 5463 5463 5463 5463 5460 5462 5459 5458 5456 5455 5453
5364 5378 5392 5406 5418 5432 5430 5436 5437 5442 5437 5441 5443 5443 5443 5442 5441 5441 5438 5437 5435 5434
5329 5353 5360 5382 5397 5404 5405 5409 5420 5423 5419 5423 5424 5426 5424 5424 5423 5424 5421 5418 5417 5416
5305 5323 5342 5352 5368 5378 5378 5389 5396 5399 5402 5402 5405 5406 5407 5406 5405 5403 5402 5402 5400 5398
5280 5296 5313 5326 5341 5348 5354 5368 5374 5376 5378 5381 5387 5389 5389 5388 5387 5385 5384 5384 5383 5384
5255 5271 5282 5297 5310 5321 5335 5341 5346 5353 5357 5361 5368 5370 5371 5370 5370 5368 5367 5366 5366 5368
5232 5247 5259 5272 5286 5298 5309 5317 5325 5328 5332 5341 5345 5351 5351 5350 5350 5352 5352 5351 5352 5354
5211 5225 5235 5246 5262 5274 5282 5292 5300 5305 5311 5318 5326 5331 5333 5333 5334 5335 5335 5336 5337 5338